Flag for United Kingdom Weather past 2 weeks in Haywards Heath, England, United Kingdom

Now
45 °F

Passing clouds.


Feels Like: 37 °F
Forecast: N/A
Wind: 17 mph from West

Location: London / Gatwick Airport

Current Time: Mar 3, 2015 at 5:44:29 PM

Latest Report: Mar 3, 2015 at 5:20 PM


Visibility: N/A

Pressure: 30.04 "Hg

Humidity: 49%

Dew point: 27 °F

Location of Haywards HeathLocation

Historic Weather in Haywards Heath — Graph

°F

Haywards Heath temperature yesterday

Maximum temperature yesterday: 46 °F (at 1:20 PM)
Minimum temperature yesterday: 36 °F (at 4:20 AM)
Average temperature yesterday: 41 °F

Past Weeks' High & Low Weather Summary

 TemperatureHumidityPressure
High54 °F (Feb 25, 3:50 PM)100% (Feb 18, 12:50 AM)30.77 "Hg (Feb 18, 12:50 AM)
Low27 °F (Feb 22, 6:20 AM)40% (Mar 2, 4:20 PM)29.27 "Hg (Feb 22, 11:20 PM)
Average42 °F82%29.90 "Hg
* Reported Feb 16 4:20 PM — Mar 3 4:20 PM, Haywards Heath, Weather by CustomWeather, © 2015

Note: Actual official high and low records may vary slightly from our data, if they occured in-between our weather recording intervals... More about our weather records

Advertising

Haywards Heath weather history for previous 24 hours

 ConditionsComfort  
Time TempWeatherWind HumidityBarometerVisibility
4:20 PM
Tue, Mar 3
46 °FPassing clouds.17 mph53%30.04 "HgN/A
3:50 PM45 °FPassing clouds.15 mph57%30.01 "HgN/A
3:20 PM46 °FSunny.16 mph53%30.01 "Hg10 mi
2:50 PM46 °FPassing clouds.18 mph53%30.01 "HgN/A
2:20 PM48 °FScattered clouds.18 mph54%30.01 "HgN/A
1:50 PM48 °FScattered clouds.15 mph54%30.01 "HgN/A
1:20 PM48 °FScattered clouds.14 mph58%29.98 "HgN/A
12:50 PM46 °FScattered clouds.16 mph62%29.98 "HgN/A
12:20 PM46 °FScattered clouds.16 mph62%29.98 "HgN/A
11:50 AM48 °FScattered clouds.18 mph58%29.98 "HgN/A
11:20 AM46 °FScattered clouds.14 mph71%29.98 "HgN/A
10:50 AM45 °FScattered clouds.16 mph76%29.98 "HgN/A
10:20 AM45 °FPartly sunny.12 mph81%29.95 "HgN/A
9:50 AM45 °FPartly sunny.14 mph81%29.95 "HgN/A
9:20 AM43 °FPartly sunny.12 mph87%29.95 "HgN/A
8:50 AM43 °FPassing clouds.10 mph87%29.95 "HgN/A
8:20 AM41 °FScattered clouds.9 mph93%29.95 "HgN/A
7:50 AM41 °FPassing clouds.6 mph93%29.92 "HgN/A
7:20 AM39 °FPassing clouds.8 mph93%29.92 "HgN/A
6:50 AM39 °FLight rain. Broken clouds.9 mph93%29.92 "HgN/A
6:20 AM41 °FRain. Passing clouds.9 mph93%29.92 "Hg4 mi
5:50 AM39 °FSprinkles. Passing clouds.6 mph93%29.92 "HgN/A
5:20 AM39 °FPassing clouds.6 mph87%29.92 "HgN/A
4:50 AM39 °FPassing clouds.7 mph87%29.95 "HgN/A
4:20 AM36 °FPassing clouds.3 mph93%29.95 "HgN/A
3:50 AM34 °FPassing clouds.2 mph93%29.98 "HgN/A
3:20 AM34 °FPassing clouds.2 mph87%29.98 "HgN/A
2:50 AM32 °FClear.2 mph93%29.98 "Hg10 mi
2:20 AM34 °FPassing clouds.2 mph87%30.01 "HgN/A
1:50 AM36 °FPassing clouds.No wind87%30.01 "HgN/A
1:20 AM36 °FPassing clouds.3 mph87%30.01 "HgN/A
12:50 AM37 °FPassing clouds.6 mph81%30.01 "HgN/A
12:20 AM37 °FLight rain. Passing clouds.6 mph81%30.01 "HgN/A
11:50 PM
Mon, Mar 2
37 °FClear.6 mph81%30.01 "Hg10 mi
11:20 PM37 °FClear.10 mph81%30.01 "Hg10 mi
10:50 PM37 °FClear.9 mph75%30.01 "Hg10 mi
10:20 PM37 °FClear.9 mph75%30.01 "Hg10 mi
9:50 PM39 °FClear.10 mph70%30.01 "Hg10 mi
9:20 PM39 °FClear.10 mph70%30.01 "Hg10 mi
8:50 PM39 °FPassing clouds.7 mph70%29.98 "HgN/A
8:20 PM39 °FClear.7 mph70%29.98 "Hg10 mi
7:50 PM39 °FClear.8 mph70%29.98 "Hg10 mi
7:20 PM39 °FClear.8 mph70%29.95 "Hg10 mi
6:50 PM41 °FClear.9 mph66%29.95 "Hg10 mi
6:20 PM41 °FClear.13 mph66%29.95 "Hg10 mi
5:50 PM43 °FClear.13 mph57%29.92 "Hg10 mi
5:20 PM45 °FSunny.13 mph49%29.92 "Hg10 mi
Weather by CustomWeather, © 2015

See weather overviewHow to use our weather pages